Location: Shell Point
(30.0571°N, 84.2896°W)
Time: 18:49:49
(UTC-04:00)

Meteor 2-19 Rocket - Visible Passes

Search period start: 25 July 2017 00:00
Search period end: 04 August 2017 00:00
Orbit: 937 x 958 km, 82.5° (Epoch: 25 July)

Date Brightness Start Highest point End Pass type
(mag) Time Alt. Az. Time Alt. Az. Time Alt. Az.
25 Jul 6.2 03:23:45 22° ESE 03:24:48 23° E 03:29:29 10° NE visible
25 Jul 5.0 05:07:51 34° WSW 05:09:16 38° W 05:14:58 10° NNW visible
26 Jul 5.4 03:41:03 38° ESE 03:41:35 39° E 03:47:13 10° NNE visible
26 Jul 5.6 05:25:08 22° W 05:26:26 23° WNW 05:31:13 10° NNW visible
27 Jul 4.6 03:58:19 65° E 03:58:27 65° E 04:04:33 10° NNE visible
27 Jul 6.2 05:42:24 13° W 05:43:41 14° WNW 05:46:37 10° NW visible
28 Jul 6.9 02:31:28 10° E 02:31:28 10° E 02:32:30 10° ENE visible
28 Jul 4.3 04:15:33 76° WNW 04:15:33 76° WNW 04:21:35 10° N visible
29 Jul 6.5 02:48:41 19° ENE 02:48:41 19° ENE 02:52:15 10° NE visible
29 Jul 4.9 04:32:47 45° WNW 04:32:47 45° WNW 04:38:20 10° N visible
30 Jul 5.9 03:05:53 30° ENE 03:05:53 30° ENE 03:10:13 10° NNE visible
30 Jul 5.5 04:49:59 27° WNW 04:49:59 27° WNW 04:54:44 10° NNW visible
31 Jul 5.3 03:23:04 45° NE 03:23:04 45° NE 03:27:40 10° NNE visible
31 Jul 6.1 05:07:09 16° WNW 05:07:09 16° WNW 05:10:32 10° NW visible
01 Aug 5.0 03:40:14 53° N 03:40:14 53° N 03:44:48 10° N visible
02 Aug 6.8 02:13:18 14° ENE 02:13:18 14° ENE 02:14:53 10° NE visible
02 Aug 5.2 03:57:23 42° NNW 03:57:23 42° NNW 04:01:39 10° N visible
03 Aug 6.4 02:30:26 21° NE 02:30:26 21° NE 02:33:09 10° NNE visible
03 Aug 5.7 04:14:31 28° NW 04:14:31 28° NW 04:18:11 10° NNW visible
